NORTHERN QUEENS  -  Heat Advisory Heat Advisory     Air Quality Alert Air Quality Alert        SOUTHERN QUEENS  -  Heat Advisory Heat Advisory     Air Quality Alert Air Quality Alert      

Active alerts

Northern Queens
  Details for Northern Queens Heat Advisory  +1 additional alert
Southern Queens
  Details for Southern Queens Heat Advisory  +1 additional alert


WXM80 ListenWXM80 Stop

You find our weather info also at:

UK Metoffice

WeatherCloud

Weather Underground

Northeastern Weather Network

AWEKAS

Citizen Weather Observer Program (CWOP)

HAMweather, WeatherForYou, PWS Weather


Weather Underground History page Text

Daily Summary for April 22, 2017 Units:  Both    English   Metric
« Previous Day
Next Day »
Daily Weekly Monthly Yearly Custom
  High: Low: Average:
Temperature: 52.3 °F /  11.3 °C 47.0 °F /  8.3 °C 49.6 °F /  9.8 °C
Dew Point: 50.9 °F /  10.5 °C 44.5 °F /  6.9 °C 48.1 °F /  8.9 °C
Humidity: 99 % 83 % 95 %
Wind Speed: 7.8 mph /  12.6 km/h - 1.5 mph /  2.4 km/h
Wind Gust: 10.0 mph /  16.1 km/h - -
Wind:- - ESE
Pressure: 29.97 in /  1014.8 hPa 29.86 in /  1011.1 hPa -
Precipitation: 0.00 in /  0 mm    
Historical Graphs
 
 
Tabular Data for April 22, 2017
Time Temperature Dew Point Pressure Wind Wind Speed Wind Gust Humidity Rainfall Rate (Hourly)
00:04 47.2 °F /  8.4 °C 46.7 °F /  8.2 °C 29.91 in /  1012.8 hPa East 4.2 mph /  6.8 km/h 6.0 mph /  9.7 km/h 98 % 0.00 in /  0 mm
00:09 47.2 °F /  8.4 °C 46.7 °F /  8.2 °C 29.91 in /  1012.8 hPa ENE 2.7 mph /  4.3 km/h 3.5 mph /  5.6 km/h 98 % 0.00 in /  0 mm
00:14 47.3 °F /  8.5 °C 46.8 °F /  8.2 °C 29.91 in /  1012.8 hPa East 2.8 mph /  4.5 km/h 5.0 mph /  8 km/h 98 % 0.00 in /  0 mm
00:19 47.3 °F /  8.5 °C 46.8 °F /  8.2 °C 29.91 in /  1012.8 hPa ENE 2.7 mph /  4.3 km/h 4.6 mph /  7.4 km/h 98 % 0.00 in /  0 mm
00:24 47.3 °F /  8.5 °C 46.8 °F /  8.2 °C 29.90 in /  1012.4 hPa ENE 2.9 mph /  4.7 km/h 5.8 mph /  9.3 km/h 98 % 0.00 in /  0 mm
00:29 47.3 °F /  8.5 °C 46.8 °F /  8.2 °C 29.90 in /  1012.4 hPa East 2.9 mph /  4.7 km/h 5.0 mph /  8 km/h 98 % 0.00 in /  0 mm
00:34 47.3 °F /  8.5 °C 46.8 °F /  8.2 °C 29.90 in /  1012.4 hPa East 4.0 mph /  6.4 km/h 5.8 mph /  9.3 km/h 98 % 0.00 in /  0 mm
00:39 47.2 °F /  8.4 °C 46.7 °F /  8.2 °C 29.90 in /  1012.4 hPa ENE 2.5 mph /  4 km/h 3.5 mph /  5.6 km/h 98 % 0.00 in /  0 mm
00:44 47.2 °F /  8.4 °C 46.7 °F /  8.2 °C 29.90 in /  1012.4 hPa East 2.6 mph /  4.2 km/h 4.6 mph /  7.4 km/h 98 % 0.00 in /  0 mm
00:49 47.2 °F /  8.4 °C 46.7 °F /  8.2 °C 29.91 in /  1012.8 hPa East 2.6 mph /  4.2 km/h 4.6 mph /  7.4 km/h 98 % 0.00 in /  0 mm
00:55 47.2 °F /  8.4 °C 46.7 °F /  8.2 °C 29.91 in /  1012.8 hPa ENE 1.8 mph /  2.9 km/h 3.5 mph /  5.6 km/h 98 % 0.00 in /  0 mm
01:00 47.3 °F /  8.5 °C 46.8 °F /  8.2 °C 29.91 in /  1012.8 hPa East 2.2 mph /  3.5 km/h 3.5 mph /  5.6 km/h 98 % 0.00 in /  0 mm
01:05 47.3 °F /  8.5 °C 46.8 °F /  8.2 °C 29.90 in /  1012.4 hPa ENE 2.1 mph /  3.4 km/h 3.0 mph /  4.8 km/h 98 % 0.00 in /  0 mm
01:06 47.3 °F /  8.5 °C 46.8 °F /  8.2 °C 29.90 in /  1012.4 hPa ENE 2.1 mph /  3.4 km/h 3.5 mph /  5.6 km/h 98 % 0.00 in /  0 mm
01:11 47.3 °F /  8.5 °C 46.8 °F /  8.2 °C 29.91 in /  1012.8 hPa ENE 2.2 mph /  3.5 km/h 4.0 mph /  6.4 km/h 98 % 0.00 in /  0 mm
01:16 47.3 °F /  8.5 °C 46.8 °F /  8.2 °C 29.90 in /  1012.4 hPa ENE 4.7 mph /  7.6 km/h 6.9 mph /  11.1 km/h 98 % 0.00 in /  0 mm
01:21 47.2 °F /  8.4 °C 46.7 °F /  8.2 °C 29.90 in /  1012.4 hPa ENE 3.3 mph /  5.3 km/h 4.6 mph /  7.4 km/h 98 % 0.00 in /  0 mm
01:26 47.2 °F /  8.4 °C 46.7 °F /  8.2 °C 29.89 in /  1012.1 hPa East 4.2 mph /  6.8 km/h 8.1 mph /  13 km/h 98 % 0.00 in /  0 mm
01:31 47.1 °F /  8.4 °C 46.6 °F /  8.1 °C 29.89 in /  1012.1 hPa ENE 3.7 mph /  6 km/h 7.0 mph /  11.3 km/h 98 % 0.00 in /  0 mm
01:36 47.1 °F /  8.4 °C 46.6 °F /  8.1 °C 29.90 in /  1012.4 hPa NE 3.1 mph /  5 km/h 4.0 mph /  6.4 km/h 98 % 0.00 in /  0 mm
01:41 47.1 °F /  8.4 °C 46.6 °F /  8.1 °C 29.90 in /  1012.4 hPa NE 2.1 mph /  3.4 km/h 4.0 mph /  6.4 km/h 98 % 0.00 in /  0 mm
01:46 47.0 °F /  8.3 °C 46.5 °F /  8.1 °C 29.89 in /  1012.1 hPa NE 1.2 mph /  1.9 km/h 3.5 mph /  5.6 km/h 98 % 0.00 in /  0 mm
01:51 47.0 °F /  8.3 °C 46.5 °F /  8.1 °C 29.89 in /  1012.1 hPa NE 2.4 mph /  3.9 km/h 4.0 mph /  6.4 km/h 98 % 0.00 in /  0 mm
01:56 47.0 °F /  8.3 °C 46.5 °F /  8.1 °C 29.89 in /  1012.1 hPa NE 2.8 mph /  4.5 km/h 4.6 mph /  7.4 km/h 98 % 0.00 in /  0 mm
02:01 47.0 °F /  8.3 °C 46.5 °F /  8.1 °C 29.89 in /  1012.1 hPa East 2.8 mph /  4.5 km/h 5.0 mph /  8 km/h 98 % 0.00 in /  0 mm
02:06 47.1 °F /  8.4 °C 46.6 °F /  8.1 °C 29.89 in /  1012.1 hPa NE 2.3 mph /  3.7 km/h 3.5 mph /  5.6 km/h 98 % 0.00 in /  0 mm
02:11 47.2 °F /  8.4 °C 46.7 °F /  8.2 °C 29.89 in /  1012.1 hPa ENE 3.2 mph /  5.1 km/h 3.5 mph /  5.6 km/h 98 % 0.00 in /  0 mm
02:16 47.2 °F /  8.4 °C 46.7 °F /  8.2 °C 29.89 in /  1012.1 hPa NE 2.2 mph /  3.5 km/h 3.5 mph /  5.6 km/h 98 % 0.00 in /  0 mm
02:22 47.2 °F /  8.4 °C 46.7 °F /  8.2 °C 29.89 in /  1012.1 hPa ENE 2.4 mph /  3.9 km/h 3.5 mph /  5.6 km/h 98 % 0.00 in /  0 mm
02:27 47.3 °F /  8.5 °C 46.8 °F /  8.2 °C 29.90 in /  1012.4 hPa ENE 1.9 mph /  3.1 km/h 4.6 mph /  7.4 km/h 98 % 0.00 in /  0 mm
02:32 47.3 °F /  8.5 °C 46.8 °F /  8.2 °C 29.90 in /  1012.4 hPa ENE 0.7 mph /  1.1 km/h 3.0 mph /  4.8 km/h 98 % 0.00 in /  0 mm
02:37 47.4 °F /  8.6 °C 46.9 °F /  8.3 °C 29.90 in /  1012.4 hPa Calm   1.2 mph /  1.9 km/h 98 % 0.00 in /  0 mm
02:42 47.4 °F /  8.6 °C 46.9 °F /  8.3 °C 29.90 in /  1012.4 hPa ENE 0.5 mph /  0.8 km/h 2.3 mph /  3.7 km/h 98 % 0.00 in /  0 mm
02:47 47.4 °F /  8.6 °C 46.9 °F /  8.3 °C 29.89 in /  1012.1 hPa Calm   2.0 mph /  3.2 km/h 98 % 0.00 in /  0 mm
02:52 47.5 °F /  8.6 °C 47.0 °F /  8.3 °C 29.89 in /  1012.1 hPa NE 1.0 mph /  1.6 km/h 3.0 mph /  4.8 km/h 98 % 0.00 in /  0 mm
02:57 47.5 °F /  8.6 °C 47.0 °F /  8.3 °C 29.90 in /  1012.4 hPa NNE 1.6 mph /  2.6 km/h 3.5 mph /  5.6 km/h 98 % 0.00 in /  0 mm
03:02 47.6 °F /  8.7 °C 47.1 °F /  8.4 °C 29.90 in /  1012.4 hPa Calm   1.2 mph /  1.9 km/h 98 % 0.00 in /  0 mm
03:07 47.6 °F /  8.7 °C 47.1 °F /  8.4 °C 29.90 in /  1012.4 hPa Calm   2.0 mph /  3.2 km/h 98 % 0.00 in /  0 mm
03:12 47.6 °F /  8.7 °C 47.1 °F /  8.4 °C 29.90 in /  1012.4 hPa Calm   2.0 mph /  3.2 km/h 98 % 0.00 in /  0 mm
03:17 47.6 °F /  8.7 °C 47.1 °F /  8.4 °C 29.90 in /  1012.4 hPa Calm   1.0 mph /  1.6 km/h 98 % 0.00 in /  0 mm
03:22 47.7 °F /  8.7 °C 47.2 °F /  8.4 °C 29.89 in /  1012.1 hPa Calm   1.0 mph /  1.6 km/h 98 % 0.00 in /  0 mm
03:27 47.7 °F /  8.7 °C 47.2 °F /  8.4 °C 29.89 in /  1012.1 hPa Calm   1.0 mph /  1.6 km/h 98 % 0.00 in /  0 mm
03:32 47.7 °F /  8.7 °C 47.2 °F /  8.4 °C 29.89 in /  1012.1 hPa Calm     98 % 0.00 in /  0 mm
03:37 47.7 °F /  8.7 °C 47.2 °F /  8.4 °C 29.88 in /  1011.7 hPa Calm   1.2 mph /  1.9 km/h 98 % 0.00 in /  0 mm
03:42 47.7 °F /  8.7 °C 47.4 °F /  8.6 °C 29.88 in /  1011.7 hPa Calm   1.0 mph /  1.6 km/h 99 % 0.00 in /  0 mm
03:47 47.8 °F /  8.8 °C 47.5 °F /  8.6 °C 29.88 in /  1011.7 hPa NNE 1.0 mph /  1.6 km/h 3.0 mph /  4.8 km/h 99 % 0.00 in /  0 mm
03:52 47.8 °F /  8.8 °C 47.5 °F /  8.6 °C 29.88 in /  1011.7 hPa Calm   2.0 mph /  3.2 km/h 99 % 0.00 in /  0 mm
03:57 47.8 °F /  8.8 °C 47.5 °F /  8.6 °C 29.87 in /  1011.4 hPa Calm     99 % 0.00 in /  0 mm
04:02 47.8 °F /  8.8 °C 47.5 °F /  8.6 °C 29.87 in /  1011.4 hPa Calm     99 % 0.00 in /  0 mm
04:07 47.8 °F /  8.8 °C 47.5 °F /  8.6 °C 29.87 in /  1011.4 hPa Calm   1.0 mph /  1.6 km/h 99 % 0.00 in /  0 mm
04:12 47.9 °F /  8.8 °C 47.6 °F /  8.7 °C 29.87 in /  1011.4 hPa NNE 1.0 mph /  1.6 km/h 3.0 mph /  4.8 km/h 99 % 0.00 in /  0 mm
04:17 47.9 °F /  8.8 °C 47.6 °F /  8.7 °C 29.86 in /  1011.1 hPa NNE 3.0 mph /  4.8 km/h 5.0 mph /  8 km/h 99 % 0.00 in /  0 mm
04:22 47.9 °F /  8.8 °C 47.6 °F /  8.7 °C 29.87 in /  1011.4 hPa NNE 2.0 mph /  3.2 km/h 5.0 mph /  8 km/h 99 % 0.00 in /  0 mm
04:27 47.9 °F /  8.8 °C 47.6 °F /  8.7 °C 29.86 in /  1011.1 hPa NNE 2.0 mph /  3.2 km/h 4.0 mph /  6.4 km/h 99 % 0.00 in /  0 mm
04:32 48.0 °F /  8.9 °C 47.7 °F /  8.7 °C 29.86 in /  1011.1 hPa NNE 3.1 mph /  5 km/h 4.0 mph /  6.4 km/h 99 % 0.00 in /  0 mm
04:37 48.1 °F /  8.9 °C 47.6 °F /  8.7 °C 29.86 in /  1011.1 hPa NNE 2.0 mph /  3.2 km/h 5.0 mph /  8 km/h 98 % 0.00 in /  0 mm
04:42 48.1 °F /  8.9 °C 47.6 °F /  8.7 °C 29.86 in /  1011.1 hPa NNE 0.2 mph /  0.3 km/h 3.5 mph /  5.6 km/h 98 % 0.00 in /  0 mm
04:47 48.1 °F /  8.9 °C 47.6 °F /  8.7 °C 29.86 in /  1011.1 hPa Calm   1.2 mph /  1.9 km/h 98 % 0.00 in /  0 mm
04:52 48.1 °F /  8.9 °C 47.6 °F /  8.7 °C 29.86 in /  1011.1 hPa Calm   3.0 mph /  4.8 km/h 98 % 0.00 in /  0 mm
04:57 48.1 °F /  8.9 °C 47.6 °F /  8.7 °C 29.86 in /  1011.1 hPa NNE 0.3 mph /  0.5 km/h 2.3 mph /  3.7 km/h 98 % 0.00 in /  0 mm
05:02 48.1 °F /  8.9 °C 47.6 °F /  8.7 °C 29.86 in /  1011.1 hPa NE 0.3 mph /  0.5 km/h 3.5 mph /  5.6 km/h 98 % 0.00 in /  0 mm
05:07 48.1 °F /  8.9 °C 47.6 °F /  8.7 °C 29.87 in /  1011.4 hPa NE 0.2 mph /  0.3 km/h 2.3 mph /  3.7 km/h 98 % 0.00 in /  0 mm
05:12 48.1 °F /  8.9 °C 47.6 °F /  8.7 °C 29.87 in /  1011.4 hPa Calm     98 % 0.00 in /  0 mm
05:17 48.1 °F /  8.9 °C 47.6 °F /  8.7 °C 29.87 in /  1011.4 hPa NE 0.1 mph /  0.2 km/h 2.3 mph /  3.7 km/h 98 % 0.00 in /  0 mm
05:19 48.1 °F /  8.9 °C 47.6 °F /  8.7 °C 29.87 in /  1011.4 hPa NE 1.5 mph /  2.4 km/h 2.3 mph /  3.7 km/h 98 % 0.00 in /  0 mm
05:24 48.1 °F /  8.9 °C 47.6 °F /  8.7 °C 29.88 in /  1011.7 hPa NNE 1.0 mph /  1.6 km/h 3.5 mph /  5.6 km/h 98 % 0.00 in /  0 mm
05:29 48.1 °F /  8.9 °C 47.6 °F /  8.7 °C 29.88 in /  1011.7 hPa North 3.2 mph /  5.1 km/h 4.6 mph /  7.4 km/h 98 % 0.00 in /  0 mm
05:34 48.2 °F /  9 °C 47.7 °F /  8.7 °C 29.87 in /  1011.4 hPa NNE 0.1 mph /  0.2 km/h 2.3 mph /  3.7 km/h 98 % 0.00 in /  0 mm
05:39 48.2 °F /  9 °C 47.7 °F /  8.7 °C 29.86 in /  1011.1 hPa ENE 1.0 mph /  1.6 km/h 3.5 mph /  5.6 km/h 98 % 0.00 in /  0 mm
05:44 48.2 °F /  9 °C 47.7 °F /  8.7 °C 29.87 in /  1011.4 hPa ENE 0.1 mph /  0.2 km/h 2.3 mph /  3.7 km/h 98 % 0.00 in /  0 mm
05:49 48.2 °F /  9 °C 47.7 °F /  8.7 °C 29.87 in /  1011.4 hPa NE 0.6 mph /  1 km/h 2.3 mph /  3.7 km/h 98 % 0.00 in /  0 mm
05:54 48.2 °F /  9 °C 47.7 °F /  8.7 °C 29.87 in /  1011.4 hPa NE 1.6 mph /  2.6 km/h 3.5 mph /  5.6 km/h 98 % 0.00 in /  0 mm
05:59 48.1 °F /  8.9 °C 47.6 °F /  8.7 °C 29.88 in /  1011.7 hPa NNE 1.2 mph /  1.9 km/h 3.0 mph /  4.8 km/h 98 % 0.00 in /  0 mm
06:04 48.1 °F /  8.9 °C 47.6 °F /  8.7 °C 29.88 in /  1011.7 hPa NNE 0.9 mph /  1.4 km/h 2.0 mph /  3.2 km/h 98 % 0.00 in /  0 mm
06:09 48.1 °F /  8.9 °C 47.6 °F /  8.7 °C 29.88 in /  1011.7 hPa NNE 2.6 mph /  4.2 km/h 4.6 mph /  7.4 km/h 98 % 0.00 in /  0 mm
06:14 48.1 °F /  8.9 °C 47.6 °F /  8.7 °C 29.89 in /  1012.1 hPa ENE 2.9 mph /  4.7 km/h 4.6 mph /  7.4 km/h 98 % 0.00 in /  0 mm
06:19 48.1 °F /  8.9 °C 47.6 °F /  8.7 °C 29.88 in /  1011.7 hPa ENE 1.0 mph /  1.6 km/h 2.3 mph /  3.7 km/h 98 % 0.00 in /  0 mm
06:24 48.1 °F /  8.9 °C 47.6 °F /  8.7 °C 29.88 in /  1011.7 hPa NE 2.4 mph /  3.9 km/h 3.5 mph /  5.6 km/h 98 % 0.00 in /  0 mm
06:29 48.1 °F /  8.9 °C 47.6 °F /  8.7 °C 29.88 in /  1011.7 hPa ENE 2.6 mph /  4.2 km/h 3.5 mph /  5.6 km/h 98 % 0.00 in /  0 mm
06:34 48.1 °F /  8.9 °C 47.6 °F /  8.7 °C 29.89 in /  1012.1 hPa ENE 0.1 mph /  0.2 km/h 2.3 mph /  3.7 km/h 98 % 0.00 in /  0 mm
06:39 48.1 °F /  8.9 °C 47.6 °F /  8.7 °C 29.89 in /  1012.1 hPa ENE 0.5 mph /  0.8 km/h 2.3 mph /  3.7 km/h 98 % 0.00 in /  0 mm
06:44 48.1 °F /  8.9 °C 47.6 °F /  8.7 °C 29.88 in /  1011.7 hPa ENE 2.9 mph /  4.7 km/h 3.5 mph /  5.6 km/h 98 % 0.00 in /  0 mm
06:49 48.2 °F /  9 °C 47.7 °F /  8.7 °C 29.88 in /  1011.7 hPa ENE 3.1 mph /  5 km/h 6.9 mph /  11.1 km/h 98 % 0.00 in /  0 mm
06:50 48.2 °F /  9 °C 47.7 °F /  8.7 °C 29.88 in /  1011.7 hPa NE 3.0 mph /  4.8 km/h 6.9 mph /  11.1 km/h 98 % 0.00 in /  0 mm
06:55 48.2 °F /  9 °C 47.7 °F /  8.7 °C 29.88 in /  1011.7 hPa NE 3.7 mph /  6 km/h 8.1 mph /  13 km/h 98 % 0.00 in /  0 mm
07:00 48.2 °F /  9 °C 47.7 °F /  8.7 °C 29.88 in /  1011.7 hPa ENE 2.2 mph /  3.5 km/h 3.5 mph /  5.6 km/h 98 % 0.00 in /  0 mm
07:05 48.1 °F /  8.9 °C 47.6 °F /  8.7 °C 29.88 in /  1011.7 hPa NE 3.1 mph /  5 km/h 6.9 mph /  11.1 km/h 98 % 0.00 in /  0 mm
07:10 48.1 °F /  8.9 °C 47.6 °F /  8.7 °C 29.88 in /  1011.7 hPa ENE 3.0 mph /  4.8 km/h 4.0 mph /  6.4 km/h 98 % 0.00 in /  0 mm
07:15 48.0 °F /  8.9 °C 47.7 °F /  8.7 °C 29.88 in /  1011.7 hPa ENE 4.1 mph /  6.6 km/h 6.9 mph /  11.1 km/h 99 % 0.00 in /  0 mm
07:20 47.9 °F /  8.8 °C 47.6 °F /  8.7 °C 29.88 in /  1011.7 hPa ENE 3.5 mph /  5.6 km/h 5.0 mph /  8 km/h 99 % 0.00 in /  0 mm
07:25 47.9 °F /  8.8 °C 47.6 °F /  8.7 °C 29.88 in /  1011.7 hPa ENE 2.8 mph /  4.5 km/h 5.8 mph /  9.3 km/h 99 % 0.00 in /  0 mm
07:30 47.9 °F /  8.8 °C 47.6 °F /  8.7 °C 29.88 in /  1011.7 hPa ENE 2.8 mph /  4.5 km/h 5.8 mph /  9.3 km/h 99 % 0.00 in /  0 mm
07:35 47.9 °F /  8.8 °C 47.6 °F /  8.7 °C 29.88 in /  1011.7 hPa ENE 7.8 mph /  12.6 km/h 10.0 mph /  16.1 km/h 99 % 0.00 in /  0 mm
07:40 47.8 °F /  8.8 °C 47.5 °F /  8.6 °C 29.88 in /  1011.7 hPa NE 6.0 mph /  9.7 km/h 8.1 mph /  13 km/h 99 % 0.00 in /  0 mm
07:45 47.8 °F /  8.8 °C 47.5 °F /  8.6 °C 29.89 in /  1012.1 hPa ENE 4.4 mph /  7.1 km/h 8.1 mph /  13 km/h 99 % 0.00 in /  0 mm
07:50 47.7 °F /  8.7 °C 47.2 °F /  8.4 °C 29.88 in /  1011.7 hPa East 3.9 mph /  6.3 km/h 6.9 mph /  11.1 km/h 98 % 0.00 in /  0 mm
07:55 47.7 °F /  8.7 °C 47.2 °F /  8.4 °C 29.89 in /  1012.1 hPa NE 3.1 mph /  5 km/h 4.6 mph /  7.4 km/h 98 % 0.00 in /  0 mm
08:00 47.8 °F /  8.8 °C 47.3 °F /  8.5 °C 29.89 in /  1012.1 hPa ENE 2.5 mph /  4 km/h 5.0 mph /  8 km/h 98 % 0.00 in /  0 mm
08:05 47.8 °F /  8.8 °C 47.3 °F /  8.5 °C 29.89 in /  1012.1 hPa ENE 4.5 mph /  7.2 km/h 8.1 mph /  13 km/h 98 % 0.00 in /  0 mm
08:10 47.7 °F /  8.7 °C 47.2 °F /  8.4 °C 29.89 in /  1012.1 hPa NE 0.9 mph /  1.4 km/h 2.3 mph /  3.7 km/h 98 % 0.00 in /  0 mm
08:15 47.8 °F /  8.8 °C 47.3 °F /  8.5 °C 29.90 in /  1012.4 hPa NE 0.7 mph /  1.1 km/h 2.3 mph /  3.7 km/h 98 % 0.00 in /  0 mm
08:20 47.8 °F /  8.8 °C 47.3 °F /  8.5 °C 29.90 in /  1012.4 hPa ENE 2.9 mph /  4.7 km/h 4.6 mph /  7.4 km/h 98 % 0.00 in /  0 mm
08:25 47.8 °F /  8.8 °C 47.3 °F /  8.5 °C 29.90 in /  1012.4 hPa ENE 2.5 mph /  4 km/h 3.5 mph /  5.6 km/h 98 % 0.00 in /  0 mm
08:26 47.8 °F /  8.8 °C 47.3 °F /  8.5 °C 29.90 in /  1012.4 hPa ENE 2.7 mph /  4.3 km/h 4.0 mph /  6.4 km/h 98 % 0.00 in /  0 mm
08:31 47.7 °F /  8.7 °C 47.2 °F /  8.4 °C 29.90 in /  1012.4 hPa NE 1.1 mph /  1.8 km/h 2.3 mph /  3.7 km/h 98 % 0.00 in /  0 mm
08:36 47.8 °F /  8.8 °C 47.3 °F /  8.5 °C 29.90 in /  1012.4 hPa North 3.3 mph /  5.3 km/h 5.8 mph /  9.3 km/h 98 % 0.00 in /  0 mm
08:41 47.9 °F /  8.8 °C 47.4 °F /  8.6 °C 29.90 in /  1012.4 hPa ENE 1.4 mph /  2.3 km/h 3.5 mph /  5.6 km/h 98 % 0.00 in /  0 mm
08:46 48.0 °F /  8.9 °C 47.5 °F /  8.6 °C 29.90 in /  1012.4 hPa NE 3.9 mph /  6.3 km/h 4.6 mph /  7.4 km/h 98 % 0.00 in /  0 mm
08:51 47.9 °F /  8.8 °C 47.4 °F /  8.6 °C 29.90 in /  1012.4 hPa NE 1.8 mph /  2.9 km/h 6.9 mph /  11.1 km/h 98 % 0.00 in /  0 mm
08:56 48.0 °F /  8.9 °C 47.5 °F /  8.6 °C 29.91 in /  1012.8 hPa ENE 1.7 mph /  2.7 km/h 4.6 mph /  7.4 km/h 98 % 0.00 in /  0 mm
09:01 47.9 °F /  8.8 °C 47.4 °F /  8.6 °C 29.91 in /  1012.8 hPa NE 1.0 mph /  1.6 km/h 3.5 mph /  5.6 km/h 98 % 0.00 in /  0 mm
09:06 47.9 °F /  8.8 °C 47.4 °F /  8.6 °C 29.91 in /  1012.8 hPa ENE 3.0 mph /  4.8 km/h 4.6 mph /  7.4 km/h 98 % 0.00 in /  0 mm
09:11 47.9 °F /  8.8 °C 47.4 °F /  8.6 °C 29.90 in /  1012.4 hPa ENE 2.8 mph /  4.5 km/h 3.5 mph /  5.6 km/h 98 % 0.00 in /  0 mm
09:16 47.9 °F /  8.8 °C 47.4 °F /  8.6 °C 29.91 in /  1012.8 hPa ENE 2.9 mph /  4.7 km/h 6.9 mph /  11.1 km/h 98 % 0.00 in /  0 mm
09:21 48.0 °F /  8.9 °C 47.5 °F /  8.6 °C 29.90 in /  1012.4 hPa ENE 1.8 mph /  2.9 km/h 4.0 mph /  6.4 km/h 98 % 0.00 in /  0 mm
09:26 48.0 °F /  8.9 °C 47.5 °F /  8.6 °C 29.91 in /  1012.8 hPa ENE 2.4 mph /  3.9 km/h 4.6 mph /  7.4 km/h 98 % 0.00 in /  0 mm
09:31 48.1 °F /  8.9 °C 47.6 °F /  8.7 °C 29.91 in /  1012.8 hPa ENE 2.6 mph /  4.2 km/h 4.6 mph /  7.4 km/h 98 % 0.00 in /  0 mm
09:36 48.1 °F /  8.9 °C 47.6 °F /  8.7 °C 29.91 in /  1012.8 hPa ENE 0.7 mph /  1.1 km/h 3.5 mph /  5.6 km/h 98 % 0.00 in /  0 mm
09:41 48.1 °F /  8.9 °C 47.6 °F /  8.7 °C 29.91 in /  1012.8 hPa East 1.3 mph /  2.1 km/h 3.5 mph /  5.6 km/h 98 % 0.00 in /  0 mm
09:46 48.3 °F /  9.1 °C 47.8 °F /  8.8 °C 29.91 in /  1012.8 hPa East 1.8 mph /  2.9 km/h 3.5 mph /  5.6 km/h 98 % 0.00 in /  0 mm
09:51 48.5 °F /  9.2 °C 48.0 °F /  8.9 °C 29.91 in /  1012.8 hPa East 3.1 mph /  5 km/h 5.0 mph /  8 km/h 98 % 0.00 in /  0 mm
09:56 48.6 °F /  9.2 °C 48.1 °F /  8.9 °C 29.91 in /  1012.8 hPa ENE 2.2 mph /  3.5 km/h 3.5 mph /  5.6 km/h 98 % 0.00 in /  0 mm
10:01 48.8 °F /  9.3 °C 48.3 °F /  9.1 °C 29.92 in /  1013.1 hPa East 1.6 mph /  2.6 km/h 3.5 mph /  5.6 km/h 98 % 0.00 in /  0 mm
10:06 48.9 °F /  9.4 °C 48.4 °F /  9.1 °C 29.91 in /  1012.8 hPa East 1.6 mph /  2.6 km/h 3.5 mph /  5.6 km/h 98 % 0.00 in /  0 mm
10:11 49.1 °F /  9.5 °C 48.6 °F /  9.2 °C 29.92 in /  1013.1 hPa ENE 1.4 mph /  2.3 km/h 4.6 mph /  7.4 km/h 98 % 0.00 in /  0 mm
10:16 49.3 °F /  9.6 °C 48.8 °F /  9.3 °C 29.92 in /  1013.1 hPa ENE 2.1 mph /  3.4 km/h 3.5 mph /  5.6 km/h 98 % 0.00 in /  0 mm
10:21 49.4 °F /  9.7 °C 48.9 °F /  9.4 °C 29.92 in /  1013.1 hPa ENE 2.3 mph /  3.7 km/h 3.5 mph /  5.6 km/h 98 % 0.00 in /  0 mm
10:26 49.4 °F /  9.7 °C 48.9 °F /  9.4 °C 29.92 in /  1013.1 hPa ENE 2.1 mph /  3.4 km/h 3.5 mph /  5.6 km/h 98 % 0.00 in /  0 mm
10:31 49.4 °F /  9.7 °C 48.9 °F /  9.4 °C 29.92 in /  1013.1 hPa ENE 1.9 mph /  3.1 km/h 3.5 mph /  5.6 km/h 98 % 0.00 in /  0 mm
10:36 49.4 °F /  9.7 °C 48.9 °F /  9.4 °C 29.92 in /  1013.1 hPa ENE 1.8 mph /  2.9 km/h 3.5 mph /  5.6 km/h 98 % 0.00 in /  0 mm
10:41 49.4 °F /  9.7 °C 48.9 °F /  9.4 °C 29.92 in /  1013.1 hPa ENE 1.9 mph /  3.1 km/h 3.5 mph /  5.6 km/h 98 % 0.00 in /  0 mm
10:46 49.6 °F /  9.8 °C 49.1 °F /  9.5 °C 29.91 in /  1012.8 hPa East 3.5 mph /  5.6 km/h 5.0 mph /  8 km/h 98 % 0.00 in /  0 mm
10:51 49.7 °F /  9.8 °C 48.9 °F /  9.4 °C 29.91 in /  1012.8 hPa East 2.3 mph /  3.7 km/h 5.0 mph /  8 km/h 97 % 0.00 in /  0 mm
10:56 49.9 °F /  9.9 °C 49.4 °F /  9.7 °C 29.92 in /  1013.1 hPa ENE 1.8 mph /  2.9 km/h 4.6 mph /  7.4 km/h 98 % 0.00 in /  0 mm
11:01 49.9 °F /  9.9 °C 49.1 °F /  9.5 °C 29.92 in /  1013.1 hPa ENE 2.9 mph /  4.7 km/h 3.5 mph /  5.6 km/h 97 % 0.00 in /  0 mm
11:06 50.0 °F /  10 °C 49.2 °F /  9.6 °C 29.92 in /  1013.1 hPa East 2.4 mph /  3.9 km/h 4.6 mph /  7.4 km/h 97 % 0.00 in /  0 mm
11:11 50.4 °F /  10.2 °C 49.6 °F /  9.8 °C 29.92 in /  1013.1 hPa ENE 1.8 mph /  2.9 km/h 3.5 mph /  5.6 km/h 97 % 0.00 in /  0 mm
11:16 50.7 °F /  10.4 °C 49.9 °F /  9.9 °C 29.92 in /  1013.1 hPa East 1.9 mph /  3.1 km/h 3.5 mph /  5.6 km/h 97 % 0.00 in /  0 mm
11:21 50.9 °F /  10.5 °C 49.8 °F /  9.9 °C 29.92 in /  1013.1 hPa ESE 2.1 mph /  3.4 km/h 3.5 mph /  5.6 km/h 96 % 0.00 in /  0 mm
11:26 51.0 °F /  10.6 °C 49.6 °F /  9.8 °C 29.92 in /  1013.1 hPa NE 2.8 mph /  4.5 km/h 3.5 mph /  5.6 km/h 95 % 0.00 in /  0 mm
11:31 50.8 °F /  10.4 °C 48.8 °F /  9.3 °C 29.92 in /  1013.1 hPa ENE 2.2 mph /  3.5 km/h 3.5 mph /  5.6 km/h 93 % 0.00 in /  0 mm
11:36 50.8 °F /  10.4 °C 48.8 °F /  9.3 °C 29.92 in /  1013.1 hPa ENE 2.8 mph /  4.5 km/h 3.5 mph /  5.6 km/h 93 % 0.00 in /  0 mm
11:41 50.8 °F /  10.4 °C 48.6 °F /  9.2 °C 29.92 in /  1013.1 hPa ENE 1.3 mph /  2.1 km/h 3.5 mph /  5.6 km/h 92 % 0.00 in /  0 mm
11:46 50.8 °F /  10.4 °C 48.6 °F /  9.2 °C 29.92 in /  1013.1 hPa ENE 0.9 mph /  1.4 km/h 2.3 mph /  3.7 km/h 92 % 0.00 in /  0 mm
11:51 50.8 °F /  10.4 °C 48.6 °F /  9.2 °C 29.92 in /  1013.1 hPa ENE 0.8 mph /  1.3 km/h 3.5 mph /  5.6 km/h 92 % 0.00 in /  0 mm
11:56 50.9 °F /  10.5 °C 48.7 °F /  9.3 °C 29.91 in /  1012.8 hPa ENE 0.4 mph /  0.6 km/h 3.5 mph /  5.6 km/h 92 % 0.00 in /  0 mm
12:01 50.8 °F /  10.4 °C 48.3 °F /  9.1 °C 29.91 in /  1012.8 hPa ENE 2.2 mph /  3.5 km/h 3.5 mph /  5.6 km/h 91 % 0.00 in /  0 mm
12:06 50.8 °F /  10.4 °C 48.3 °F /  9.1 °C 29.91 in /  1012.8 hPa ENE 2.0 mph /  3.2 km/h 3.5 mph /  5.6 km/h 91 % 0.00 in /  0 mm
12:11 50.7 °F /  10.4 °C 47.9 °F /  8.8 °C 29.91 in /  1012.8 hPa ENE 3.2 mph /  5.1 km/h 4.6 mph /  7.4 km/h 90 % 0.00 in /  0 mm
12:14 50.6 °F /  10.3 °C 47.8 °F /  8.8 °C 29.91 in /  1012.8 hPa ENE 3.7 mph /  6 km/h 4.6 mph /  7.4 km/h 90 % 0.00 in /  0 mm
12:24 50.3 °F /  10.2 °C 47.5 °F /  8.6 °C 29.91 in /  1012.8 hPa NE 3.3 mph /  5.3 km/h 4.0 mph /  6.4 km/h 90 % 0.00 in /  0 mm
12:29 50.3 °F /  10.2 °C 47.8 °F /  8.8 °C 29.91 in /  1012.8 hPa ENE 2.6 mph /  4.2 km/h 4.6 mph /  7.4 km/h 91 % 0.00 in /  0 mm
12:34 50.3 °F /  10.2 °C 47.8 °F /  8.8 °C 29.91 in /  1012.8 hPa ENE 0.6 mph /  1 km/h 2.3 mph /  3.7 km/h 91 % 0.00 in /  0 mm
12:44 50.6 °F /  10.3 °C 48.4 °F /  9.1 °C 29.90 in /  1012.4 hPa ENE 2.9 mph /  4.7 km/h 4.0 mph /  6.4 km/h 92 % 0.00 in /  0 mm
12:49 50.7 °F /  10.4 °C 48.5 °F /  9.2 °C 29.90 in /  1012.4 hPa ENE 1.5 mph /  2.4 km/h 3.5 mph /  5.6 km/h 92 % 0.00 in /  0 mm
12:54 50.9 °F /  10.5 °C 48.7 °F /  9.3 °C 29.90 in /  1012.4 hPa East 1.8 mph /  2.9 km/h 3.5 mph /  5.6 km/h 92 % 0.00 in /  0 mm
13:00 50.9 °F /  10.5 °C 48.4 °F /  9.1 °C 29.90 in /  1012.4 hPa East 1.7 mph /  2.7 km/h 3.5 mph /  5.6 km/h 91 % 0.00 in /  0 mm
13:05 50.9 °F /  10.5 °C 48.4 °F /  9.1 °C 29.90 in /  1012.4 hPa ENE 1.6 mph /  2.6 km/h 3.5 mph /  5.6 km/h 91 % 0.01 in /  0.25 mm
13:10 50.9 °F /  10.5 °C 48.7 °F /  9.3 °C 29.89 in /  1012.1 hPa East 1.7 mph /  2.7 km/h 3.5 mph /  5.6 km/h 92 % 0.02 in /  0.51 mm
13:15 50.9 °F /  10.5 °C 48.7 °F /  9.3 °C 29.89 in /  1012.1 hPa East 2.4 mph /  3.9 km/h 5.0 mph /  8 km/h 92 % 0.02 in /  0.51 mm
13:20 51.0 °F /  10.6 °C 49.0 °F /  9.4 °C 29.89 in /  1012.1 hPa ESE 1.6 mph /  2.6 km/h 4.6 mph /  7.4 km/h 93 % 0.03 in /  0.76 mm
13:25 51.2 °F /  10.7 °C 49.2 °F /  9.6 °C 29.89 in /  1012.1 hPa East 1.3 mph /  2.1 km/h 3.0 mph /  4.8 km/h 93 % 0.03 in /  0.76 mm
13:30 51.2 °F /  10.7 °C 49.2 °F /  9.6 °C 29.89 in /  1012.1 hPa ESE 0.8 mph /  1.3 km/h 2.0 mph /  3.2 km/h 93 % 0.03 in /  0.76 mm
13:32 51.3 °F /  10.7 °C 49.6 °F /  9.8 °C 29.88 in /  1011.7 hPa East 1.8 mph /  2.9 km/h 5.8 mph /  9.3 km/h 94 % 0.03 in /  0.76 mm
13:42 51.5 °F /  10.8 °C 49.8 °F /  9.9 °C 29.89 in /  1012.1 hPa ENE 1.4 mph /  2.3 km/h 2.3 mph /  3.7 km/h 94 % 0.03 in /  0.76 mm
13:47 51.7 °F /  10.9 °C 50.0 °F /  10 °C 29.89 in /  1012.1 hPa East 2.1 mph /  3.4 km/h 3.5 mph /  5.6 km/h 94 % 0.03 in /  0.76 mm
13:53 51.9 °F /  11.1 °C 50.2 °F /  10.1 °C 29.90 in /  1012.4 hPa ENE 2.0 mph /  3.2 km/h 3.5 mph /  5.6 km/h 94 % 0.03 in /  0.76 mm
13:58 51.9 °F /  11.1 °C 50.2 °F /  10.1 °C 29.90 in /  1012.4 hPa East 1.3 mph /  2.1 km/h 3.5 mph /  5.6 km/h 94 % 0.03 in /  0.76 mm
14:08 51.8 °F /  11 °C 49.8 °F /  9.9 °C 29.89 in /  1012.1 hPa ENE 0.9 mph /  1.4 km/h 2.3 mph /  3.7 km/h 93 % 0.02 in /  0.51 mm
14:13 51.7 °F /  10.9 °C 49.7 °F /  9.8 °C 29.89 in /  1012.1 hPa East 0.8 mph /  1.3 km/h 3.5 mph /  5.6 km/h 93 % 0.01 in /  0.25 mm
14:18 51.6 °F /  10.9 °C 49.6 °F /  9.8 °C 29.89 in /  1012.1 hPa East 1.5 mph /  2.4 km/h 3.5 mph /  5.6 km/h 93 % 0.00 in /  0 mm
14:23 51.6 °F /  10.9 °C 49.4 °F /  9.7 °C 29.89 in /  1012.1 hPa East 0.4 mph /  0.6 km/h 2.3 mph /  3.7 km/h 92 % 0.00 in /  0 mm
14:28 51.5 °F /  10.8 °C 49.3 °F /  9.6 °C 29.89 in /  1012.1 hPa SE 1.7 mph /  2.7 km/h 3.5 mph /  5.6 km/h 92 % 0.00 in /  0 mm
14:33 51.4 °F /  10.8 °C 49.2 °F /  9.6 °C 29.89 in /  1012.1 hPa SE 0.7 mph /  1.1 km/h 2.3 mph /  3.7 km/h 92 % 0.00 in /  0 mm
14:38 51.3 °F /  10.7 °C 49.1 °F /  9.5 °C 29.89 in /  1012.1 hPa SE 0.7 mph /  1.1 km/h 1.2 mph /  1.9 km/h 92 % 0.00 in /  0 mm
14:43 51.3 °F /  10.7 °C 48.8 °F /  9.3 °C 29.89 in /  1012.1 hPa Calm   1.2 mph /  1.9 km/h 91 % 0.00 in /  0 mm
14:48 51.2 °F /  10.7 °C 49.0 °F /  9.4 °C 29.89 in /  1012.1 hPa SE 0.3 mph /  0.5 km/h 1.2 mph /  1.9 km/h 92 % 0.00 in /  0 mm
14:53 51.2 °F /  10.7 °C 49.0 °F /  9.4 °C 29.89 in /  1012.1 hPa SE 1.5 mph /  2.4 km/h 2.3 mph /  3.7 km/h 92 % 0.01 in /  0.25 mm
14:58 51.2 °F /  10.7 °C 49.0 °F /  9.4 °C 29.89 in /  1012.1 hPa SE 0.9 mph /  1.4 km/h 2.3 mph /  3.7 km/h 92 % 0.01 in /  0.25 mm
15:03 51.2 °F /  10.7 °C 49.2 °F /  9.6 °C 29.89 in /  1012.1 hPa Calm   1.2 mph /  1.9 km/h 93 % 0.01 in /  0.25 mm
15:08 51.2 °F /  10.7 °C 49.2 °F /  9.6 °C 29.89 in /  1012.1 hPa Calm   1.2 mph /  1.9 km/h 93 % 0.02 in /  0.51 mm
15:13 51.2 °F /  10.7 °C 49.2 °F /  9.6 °C 29.89 in /  1012.1 hPa Calm     93 % 0.02 in /  0.51 mm
15:18 51.2 °F /  10.7 °C 49.2 °F /  9.6 °C 29.89 in /  1012.1 hPa Calm     93 % 0.02 in /  0.51 mm
15:23 51.3 °F /  10.7 °C 49.3 °F /  9.6 °C 29.89 in /  1012.1 hPa Calm     93 % 0.02 in /  0.51 mm
15:28 51.3 °F /  10.7 °C 49.6 °F /  9.8 °C 29.88 in /  1011.7 hPa Calm     94 % 0.02 in /  0.51 mm
15:33 51.4 °F /  10.8 °C 49.7 °F /  9.8 °C 29.89 in /  1012.1 hPa Calm     94 % 0.02 in /  0.51 mm
15:38 51.4 °F /  10.8 °C 49.7 °F /  9.8 °C 29.89 in /  1012.1 hPa Calm     94 % 0.02 in /  0.51 mm
15:43 51.5 °F /  10.8 °C 49.8 °F /  9.9 °C 29.88 in /  1011.7 hPa Calm     94 % 0.02 in /  0.51 mm
15:48 51.7 °F /  10.9 °C 50.0 °F /  10 °C 29.89 in /  1012.1 hPa Calm     94 % 0.02 in /  0.51 mm
15:53 51.7 °F /  10.9 °C 50.3 °F /  10.2 °C 29.89 in /  1012.1 hPa Calm     95 % 0.02 in /  0.51 mm
15:58 51.8 °F /  11 °C 50.4 °F /  10.2 °C 29.89 in /  1012.1 hPa Calm     95 % 0.02 in /  0.51 mm
16:03 51.7 °F /  10.9 °C 50.0 °F /  10 °C 29.89 in /  1012.1 hPa Calm     94 % 0.01 in /  0.25 mm
16:08 51.8 °F /  11 °C 50.1 °F /  10.1 °C 29.89 in /  1012.1 hPa SE 0.1 mph /  0.2 km/h 1.2 mph /  1.9 km/h 94 % 0.01 in /  0.25 mm
16:14 51.9 °F /  11.1 °C 50.2 °F /  10.1 °C 29.89 in /  1012.1 hPa Calm     94 % 0.01 in /  0.25 mm
16:18 52.0 °F /  11.1 °C 50.3 °F /  10.2 °C 29.90 in /  1012.4 hPa Calm     94 % 0.01 in /  0.25 mm
16:23 52.1 °F /  11.2 °C 50.4 °F /  10.2 °C 29.89 in /  1012.1 hPa Calm     94 % 0.01 in /  0.25 mm
16:28 52.1 °F /  11.2 °C 50.7 °F /  10.4 °C 29.89 in /  1012.1 hPa Calm   1.2 mph /  1.9 km/h 95 % 0.01 in /  0.25 mm
16:33 52.2 °F /  11.2 °C 50.8 °F /  10.4 °C 29.89 in /  1012.1 hPa Calm     95 % 0.01 in /  0.25 mm
16:38 52.2 °F /  11.2 °C 50.8 °F /  10.4 °C 29.89 in /  1012.1 hPa Calm   1.0 mph /  1.6 km/h 95 % 0.01 in /  0.25 mm
16:43 52.3 °F /  11.3 °C 50.9 °F /  10.5 °C 29.90 in /  1012.4 hPa NW 1.5 mph /  2.4 km/h 3.5 mph /  5.6 km/h 95 % 0.01 in /  0.25 mm
16:48 52.3 °F /  11.3 °C 50.6 °F /  10.3 °C 29.90 in /  1012.4 hPa NW 0.3 mph /  0.5 km/h 2.0 mph /  3.2 km/h 94 % 0.01 in /  0.25 mm
16:59 52.1 °F /  11.2 °C 50.4 °F /  10.2 °C 29.90 in /  1012.4 hPa Calm     94 % 0.00 in /  0 mm
17:04 52.0 °F /  11.1 °C 50.3 °F /  10.2 °C 29.91 in /  1012.8 hPa NW 0.3 mph /  0.5 km/h 2.0 mph /  3.2 km/h 94 % 0.00 in /  0 mm
17:09 51.9 °F /  11.1 °C 50.2 °F /  10.1 °C 29.91 in /  1012.8 hPa NW 1.3 mph /  2.1 km/h 2.3 mph /  3.7 km/h 94 % 0.00 in /  0 mm
17:14 51.8 °F /  11 °C 49.8 °F /  9.9 °C 29.91 in /  1012.8 hPa NW 0.7 mph /  1.1 km/h 2.3 mph /  3.7 km/h 93 % 0.00 in /  0 mm
17:19 51.7 °F /  10.9 °C 50.0 °F /  10 °C 29.91 in /  1012.8 hPa Calm   1.2 mph /  1.9 km/h 94 % 0.00 in /  0 mm
17:24 51.5 °F /  10.8 °C 49.8 °F /  9.9 °C 29.91 in /  1012.8 hPa Calm     94 % 0.00 in /  0 mm
17:29 51.5 °F /  10.8 °C 49.8 °F /  9.9 °C 29.91 in /  1012.8 hPa Calm     94 % 0.00 in /  0 mm
17:34 51.6 °F /  10.9 °C 49.9 °F /  9.9 °C 29.91 in /  1012.8 hPa Calm     94 % 0.00 in /  0 mm
17:39 51.6 °F /  10.9 °C 49.9 °F /  9.9 °C 29.91 in /  1012.8 hPa Calm     94 % 0.00 in /  0 mm
17:44 51.6 °F /  10.9 °C 49.9 °F /  9.9 °C 29.92 in /  1013.1 hPa NW 0.3 mph /  0.5 km/h 2.3 mph /  3.7 km/h 94 % 0.00 in /  0 mm
17:49 51.7 °F /  10.9 °C 50.0 °F /  10 °C 29.92 in /  1013.1 hPa Calm   1.2 mph /  1.9 km/h 94 % 0.00 in /  0 mm
17:54 51.7 °F /  10.9 °C 50.0 °F /  10 °C 29.91 in /  1012.8 hPa Calm     94 % 0.00 in /  0 mm
17:59 51.7 °F /  10.9 °C 50.0 °F /  10 °C 29.91 in /  1012.8 hPa Calm     94 % 0.00 in /  0 mm
18:04 51.7 °F /  10.9 °C 50.0 °F /  10 °C 29.91 in /  1012.8 hPa Calm   1.0 mph /  1.6 km/h 94 % 0.00 in /  0 mm
18:09 51.7 °F /  10.9 °C 50.0 °F /  10 °C 29.91 in /  1012.8 hPa Calm   1.2 mph /  1.9 km/h 94 % 0.00 in /  0 mm
18:14 51.7 °F /  10.9 °C 50.0 °F /  10 °C 29.91 in /  1012.8 hPa NW 0.9 mph /  1.4 km/h 3.5 mph /  5.6 km/h 94 % 0.00 in /  0 mm
18:19 51.8 °F /  11 °C 50.1 °F /  10.1 °C 29.90 in /  1012.4 hPa NW 0.8 mph /  1.3 km/h 2.0 mph /  3.2 km/h 94 % 0.00 in /  0 mm
18:24 51.8 °F /  11 °C 50.1 °F /  10.1 °C 29.90 in /  1012.4 hPa NW 1.4 mph /  2.3 km/h 2.3 mph /  3.7 km/h 94 % 0.00 in /  0 mm
18:29 51.8 °F /  11 °C 50.4 °F /  10.2 °C 29.90 in /  1012.4 hPa West 1.3 mph /  2.1 km/h 2.3 mph /  3.7 km/h 95 % 0.00 in /  0 mm
18:34 51.8 °F /  11 °C 50.4 °F /  10.2 °C 29.90 in /  1012.4 hPa West 2.0 mph /  3.2 km/h 3.5 mph /  5.6 km/h 95 % 0.00 in /  0 mm
18:39 51.9 °F /  11.1 °C 50.5 °F /  10.3 °C 29.90 in /  1012.4 hPa West 0.6 mph /  1 km/h 2.3 mph /  3.7 km/h 95 % 0.00 in /  0 mm
18:44 51.9 °F /  11.1 °C 50.5 °F /  10.3 °C 29.90 in /  1012.4 hPa WSW 2.1 mph /  3.4 km/h 3.5 mph /  5.6 km/h 95 % 0.00 in /  0 mm
18:50 51.9 °F /  11.1 °C 50.5 °F /  10.3 °C 29.91 in /  1012.8 hPa WSW 1.3 mph /  2.1 km/h 3.5 mph /  5.6 km/h 95 % 0.00 in /  0 mm
18:55 51.9 °F /  11.1 °C 50.5 °F /  10.3 °C 29.91 in /  1012.8 hPa WSW 4.5 mph /  7.2 km/h 5.8 mph /  9.3 km/h 95 % 0.00 in /  0 mm
19:00 51.9 °F /  11.1 °C 50.5 °F /  10.3 °C 29.91 in /  1012.8 hPa WSW 1.1 mph /  1.8 km/h 3.5 mph /  5.6 km/h 95 % 0.00 in /  0 mm
19:05 51.9 °F /  11.1 °C 50.5 °F /  10.3 °C 29.91 in /  1012.8 hPa WSW 0.4 mph /  0.6 km/h 2.3 mph /  3.7 km/h 95 % 0.00 in /  0 mm
19:10 51.9 °F /  11.1 °C 50.5 °F /  10.3 °C 29.91 in /  1012.8 hPa Calm   2.3 mph /  3.7 km/h 95 % 0.00 in /  0 mm
19:15 51.9 °F /  11.1 °C 50.5 °F /  10.3 °C 29.91 in /  1012.8 hPa WSW 0.7 mph /  1.1 km/h 3.5 mph /  5.6 km/h 95 % 0.00 in /  0 mm
19:20 51.9 °F /  11.1 °C 50.5 °F /  10.3 °C 29.91 in /  1012.8 hPa WSW 0.8 mph /  1.3 km/h 2.3 mph /  3.7 km/h 95 % 0.00 in /  0 mm
19:25 51.8 °F /  11 °C 50.4 °F /  10.2 °C 29.91 in /  1012.8 hPa Calm   2.3 mph /  3.7 km/h 95 % 0.00 in /  0 mm
19:30 51.8 °F /  11 °C 50.4 °F /  10.2 °C 29.92 in /  1013.1 hPa Calm   2.3 mph /  3.7 km/h 95 % 0.00 in /  0 mm
19:35 51.8 °F /  11 °C 50.4 °F /  10.2 °C 29.92 in /  1013.1 hPa Calm   2.3 mph /  3.7 km/h 95 % 0.00 in /  0 mm
19:40 51.8 °F /  11 °C 50.4 °F /  10.2 °C 29.92 in /  1013.1 hPa WSW 1.1 mph /  1.8 km/h 3.5 mph /  5.6 km/h 95 % 0.00 in /  0 mm
19:45 51.7 °F /  10.9 °C 50.3 °F /  10.2 °C 29.92 in /  1013.1 hPa Calm   3.5 mph /  5.6 km/h 95 % 0.00 in /  0 mm
19:46 51.7 °F /  10.9 °C 50.3 °F /  10.2 °C 29.92 in /  1013.1 hPa WSW 1.5 mph /  2.4 km/h 3.5 mph /  5.6 km/h 95 % 0.00 in /  0 mm
19:51 51.7 °F /  10.9 °C 50.3 °F /  10.2 °C 29.92 in /  1013.1 hPa WSW 1.0 mph /  1.6 km/h 3.5 mph /  5.6 km/h 95 % 0.00 in /  0 mm
19:56 51.7 °F /  10.9 °C 50.3 °F /  10.2 °C 29.92 in /  1013.1 hPa WSW 0.8 mph /  1.3 km/h 2.3 mph /  3.7 km/h 95 % 0.00 in /  0 mm
20:01 51.6 °F /  10.9 °C 50.2 °F /  10.1 °C 29.93 in /  1013.4 hPa WSW 0.4 mph /  0.6 km/h 3.5 mph /  5.6 km/h 95 % 0.00 in /  0 mm
20:06 51.6 °F /  10.9 °C 50.2 °F /  10.1 °C 29.93 in /  1013.4 hPa Calm     95 % 0.00 in /  0 mm
20:11 51.5 °F /  10.8 °C 50.1 °F /  10.1 °C 29.93 in /  1013.4 hPa WSW 0.2 mph /  0.3 km/h 2.3 mph /  3.7 km/h 95 % 0.00 in /  0 mm
20:16 51.5 °F /  10.8 °C 50.1 °F /  10.1 °C 29.92 in /  1013.1 hPa WSW 0.1 mph /  0.2 km/h 1.2 mph /  1.9 km/h 95 % 0.00 in /  0 mm
20:21 51.5 °F /  10.8 °C 50.1 °F /  10.1 °C 29.93 in /  1013.4 hPa WSW 0.3 mph /  0.5 km/h 2.3 mph /  3.7 km/h 95 % 0.00 in /  0 mm
20:26 51.4 °F /  10.8 °C 50.0 °F /  10 °C 29.92 in /  1013.1 hPa WSW 0.3 mph /  0.5 km/h 1.2 mph /  1.9 km/h 95 % 0.00 in /  0 mm
20:31 51.4 °F /  10.8 °C 50.0 °F /  10 °C 29.92 in /  1013.1 hPa Calm   1.2 mph /  1.9 km/h 95 % 0.00 in /  0 mm
20:36 51.4 °F /  10.8 °C 50.0 °F /  10 °C 29.92 in /  1013.1 hPa WSW 0.3 mph /  0.5 km/h 2.0 mph /  3.2 km/h 95 % 0.00 in /  0 mm
20:41 51.4 °F /  10.8 °C 50.0 °F /  10 °C 29.93 in /  1013.4 hPa WSW 0.1 mph /  0.2 km/h 1.0 mph /  1.6 km/h 95 % 0.00 in /  0 mm
20:46 51.3 °F /  10.7 °C 49.9 °F /  9.9 °C 29.93 in /  1013.4 hPa WSW 0.1 mph /  0.2 km/h 1.0 mph /  1.6 km/h 95 % 0.00 in /  0 mm
20:52 51.3 °F /  10.7 °C 49.9 °F /  9.9 °C 29.93 in /  1013.4 hPa WSW 0.2 mph /  0.3 km/h 3.5 mph /  5.6 km/h 95 % 0.00 in /  0 mm
20:57 51.3 °F /  10.7 °C 49.9 °F /  9.9 °C 29.93 in /  1013.4 hPa WSW 0.8 mph /  1.3 km/h 2.3 mph /  3.7 km/h 95 % 0.00 in /  0 mm
21:02 51.2 °F /  10.7 °C 49.8 °F /  9.9 °C 29.94 in /  1013.8 hPa NW 2.3 mph /  3.7 km/h 6.9 mph /  11.1 km/h 95 % 0.00 in /  0 mm
21:07 51.0 °F /  10.6 °C 49.6 °F /  9.8 °C 29.93 in /  1013.4 hPa North 2.8 mph /  4.5 km/h 4.6 mph /  7.4 km/h 95 % 0.00 in /  0 mm
21:12 50.7 °F /  10.4 °C 49.0 °F /  9.4 °C 29.94 in /  1013.8 hPa North 2.6 mph /  4.2 km/h 3.5 mph /  5.6 km/h 94 % 0.00 in /  0 mm
21:17 50.5 °F /  10.3 °C 48.6 °F /  9.2 °C 29.94 in /  1013.8 hPa NNW 3.7 mph /  6 km/h 7.0 mph /  11.3 km/h 93 % 0.00 in /  0 mm
21:22 50.3 °F /  10.2 °C 47.8 °F /  8.8 °C 29.94 in /  1013.8 hPa North 4.0 mph /  6.4 km/h 6.9 mph /  11.1 km/h 91 % 0.00 in /  0 mm
21:27 50.2 °F /  10.1 °C 47.4 °F /  8.6 °C 29.94 in /  1013.8 hPa NNE 5.0 mph /  8 km/h 6.9 mph /  11.1 km/h 90 % 0.00 in /  0 mm
21:32 50.1 °F /  10.1 °C 47.0 °F /  8.3 °C 29.94 in /  1013.8 hPa North 4.4 mph /  7.1 km/h 6.9 mph /  11.1 km/h 89 % 0.00 in /  0 mm
21:37 50.0 °F /  10 °C 46.9 °F /  8.3 °C 29.94 in /  1013.8 hPa North 3.6 mph /  5.8 km/h 7.0 mph /  11.3 km/h 89 % 0.00 in /  0 mm
21:42 49.9 °F /  9.9 °C 46.5 °F /  8.1 °C 29.94 in /  1013.8 hPa NE 4.0 mph /  6.4 km/h 6.9 mph /  11.1 km/h 88 % 0.00 in /  0 mm
21:47 49.9 °F /  9.9 °C 46.2 °F /  7.9 °C 29.94 in /  1013.8 hPa NNW 3.6 mph /  5.8 km/h 6.9 mph /  11.1 km/h 87 % 0.00 in /  0 mm
21:52 49.9 °F /  9.9 °C 46.2 °F /  7.9 °C 29.94 in /  1013.8 hPa NNE 4.4 mph /  7.1 km/h 5.8 mph /  9.3 km/h 87 % 0.00 in /  0 mm
21:57 49.8 °F /  9.9 °C 45.8 °F /  7.7 °C 29.95 in /  1014.1 hPa NNE 1.9 mph /  3.1 km/h 5.8 mph /  9.3 km/h 86 % 0.00 in /  0 mm
22:02 49.7 °F /  9.8 °C 45.7 °F /  7.6 °C 29.95 in /  1014.1 hPa North 1.5 mph /  2.4 km/h 6.9 mph /  11.1 km/h 86 % 0.00 in /  0 mm
22:07 49.8 °F /  9.9 °C 46.1 °F /  7.8 °C 29.95 in /  1014.1 hPa North 0.3 mph /  0.5 km/h 3.5 mph /  5.6 km/h 87 % 0.00 in /  0 mm
22:12 49.7 °F /  9.8 °C 46.0 °F /  7.8 °C 29.96 in /  1014.4 hPa NE 1.2 mph /  1.9 km/h 7.0 mph /  11.3 km/h 87 % 0.00 in /  0 mm
22:17 49.7 °F /  9.8 °C 46.0 °F /  7.8 °C 29.96 in /  1014.4 hPa North 0.3 mph /  0.5 km/h 2.3 mph /  3.7 km/h 87 % 0.00 in /  0 mm
22:22 49.6 °F /  9.8 °C 45.6 °F /  7.6 °C 29.96 in /  1014.4 hPa NNW 1.3 mph /  2.1 km/h 3.5 mph /  5.6 km/h 86 % 0.00 in /  0 mm
22:27 49.6 °F /  9.8 °C 45.6 °F /  7.6 °C 29.95 in /  1014.1 hPa NNE 3.0 mph /  4.8 km/h 4.0 mph /  6.4 km/h 86 % 0.00 in /  0 mm
22:32 49.5 °F /  9.7 °C 45.5 °F /  7.5 °C 29.95 in /  1014.1 hPa North 1.2 mph /  1.9 km/h 3.5 mph /  5.6 km/h 86 % 0.00 in /  0 mm
22:37 49.5 °F /  9.7 °C 45.2 °F /  7.3 °C 29.96 in /  1014.4 hPa NW 1.5 mph /  2.4 km/h 3.5 mph /  5.6 km/h 85 % 0.00 in /  0 mm
22:42 49.5 °F /  9.7 °C 45.2 °F /  7.3 °C 29.95 in /  1014.1 hPa North 2.4 mph /  3.9 km/h 3.0 mph /  4.8 km/h 85 % 0.00 in /  0 mm
22:47 49.5 °F /  9.7 °C 44.9 °F /  7.2 °C 29.95 in /  1014.1 hPa NNW 1.4 mph /  2.3 km/h 5.8 mph /  9.3 km/h 84 % 0.00 in /  0 mm
22:52 49.5 °F /  9.7 °C 45.2 °F /  7.3 °C 29.95 in /  1014.1 hPa NNW 1.0 mph /  1.6 km/h 4.0 mph /  6.4 km/h 85 % 0.00 in /  0 mm
22:57 49.5 °F /  9.7 °C 45.2 °F /  7.3 °C 29.95 in /  1014.1 hPa NNE 0.1 mph /  0.2 km/h 3.5 mph /  5.6 km/h 85 % 0.00 in /  0 mm
23:02 49.5 °F /  9.7 °C 45.2 °F /  7.3 °C 29.95 in /  1014.1 hPa NNE 1.2 mph /  1.9 km/h 4.0 mph /  6.4 km/h 85 % 0.00 in /  0 mm
23:07 49.5 °F /  9.7 °C 44.9 °F /  7.2 °C 29.95 in /  1014.1 hPa North 2.0 mph /  3.2 km/h 5.0 mph /  8 km/h 84 % 0.00 in /  0 mm
23:12 49.5 °F /  9.7 °C 44.9 °F /  7.2 °C 29.95 in /  1014.1 hPa NNW 1.6 mph /  2.6 km/h 4.6 mph /  7.4 km/h 84 % 0.00 in /  0 mm
23:17 49.5 °F /  9.7 °C 44.9 °F /  7.2 °C 29.95 in /  1014.1 hPa NNW 1.1 mph /  1.8 km/h 3.5 mph /  5.6 km/h 84 % 0.00 in /  0 mm
23:22 49.5 °F /  9.7 °C 44.9 °F /  7.2 °C 29.95 in /  1014.1 hPa North 1.1 mph /  1.8 km/h 3.5 mph /  5.6 km/h 84 % 0.00 in /  0 mm
23:27 49.4 °F /  9.7 °C 44.5 °F /  6.9 °C 29.95 in /  1014.1 hPa North 1.2 mph /  1.9 km/h 3.5 mph /  5.6 km/h 83 % 0.00 in /  0 mm
23:32 49.4 °F /  9.7 °C 44.8 °F /  7.1 °C 29.96 in /  1014.4 hPa North 0.7 mph /  1.1 km/h 4.0 mph /  6.4 km/h 84 % 0.00 in /  0 mm
23:37 49.5 °F /  9.7 °C 44.5 °F /  6.9 °C 29.96 in /  1014.4 hPa NNW 1.0 mph /  1.6 km/h 4.0 mph /  6.4 km/h 83 % 0.00 in /  0 mm
23:42 49.4 °F /  9.7 °C 44.5 °F /  6.9 °C 29.96 in /  1014.4 hPa North 0.9 mph /  1.4 km/h 3.5 mph /  5.6 km/h 83 % 0.00 in /  0 mm
23:47 49.4 °F /  9.7 °C 44.5 °F /  6.9 °C 29.96 in /  1014.4 hPa NNW 2.9 mph /  4.7 km/h 6.9 mph /  11.1 km/h 83 % 0.00 in /  0 mm
23:52 49.4 °F /  9.7 °C 44.5 °F /  6.9 °C 29.97 in /  1014.8 hPa NW 0.8 mph /  1.3 km/h 2.3 mph /  3.7 km/h 83 % 0.00 in /  0 mm
23:57 49.4 °F /  9.7 °C 44.5 °F /  6.9 °C 29.97 in /  1014.8 hPa North 1.2 mph /  1.9 km/h 4.0 mph /  6.4 km/h 83 % 0.00 in /  0 mm
Crab Meadow Weather
Compliments of Weather Underground - 3 mb

Script developed by  Jim McMurry - jmcmurry@mwt.net Adapted for the template by  Wim van der Kuil - Leuven-Template.eu

Dew Point: The dew point is the temperature to which air must be cooled, at constant barometric pressure, for water vapor to condense into water. The condensed water is called dew. When the dew point temperature falls below freezing it is called the frost point, as the water no longer creates dew but instead creates frost. The dew point is associated with relative humidity. A high relative humidity indicates that the dew point is closer to the current air temperature. If the relative humidity is 100%, the dew point is equal to the current temperature. Given a constant dew point, an increase in temperature will lead to a decrease in relative humidity.